User: anonymous   Login
Location: Lancaster
(34.6980°N, 118.1360°W)
Time: 09:52:32
(UTC-08:00)
Language:

Envisat - Orbit

View from above orbital plane
View from above orbital plane
View from above satellite
View from above satellite

Ground track
Ground track

The orbit data is extracted from the following two-line orbital elements,

1 27386U 02009A   17322.10216170 -.00000015  00000-0  88178-5 0  9994
2 27386  98.2131   0.8064 0001408  86.8699 273.2659 14.37908290823199
Epoch (UTC): 18 November 2017 02:27:06
Eccentricity: 0.0001408
inclination: 98.2131°
perigee height: 764 km
apogee height: 766 km
right ascension of ascending node: 0.8064°
argument of perigee: 86.8699°
revolutions per day: 14.37908290
mean anomaly at epoch: 273.2659°
orbit number at epoch: 82319

The dashed part of the orbit path shows where the satellite is in the earth's shadow,  

DLR